| time (UTC) | temp F | wind direction | speed MPH | gust MPH | rain 1hr in | rain 24hr in | rain mn in | humidity % | barometer mb |
| 20260505225504 | 51 | 268 | 0.0 | 2.0 | 0.00 | 0.40 | 0.05 | 77 | 1008.8 |
| 20260505225003 | 51 | 308 | 1.0 | 2.0 | 0.00 | 0.40 | 0.05 | 75 | 1008.8 |
| 20260505224509 | 51 | 34 | 1.0 | 2.0 | 0.00 | 0.40 | 0.05 | 76 | 1008.8 |
| 20260505224004 | 51 | 255 | 1.0 | 3.0 | 0.00 | 0.40 | 0.05 | 75 | 1008.6 |
| 20260505223503 | 51 | 307 | 1.0 | 3.0 | 0.00 | 0.40 | 0.05 | 75 | 1008.7 |
| 20260505223014 | 51 | 319 | 0.0 | 2.0 | 0.00 | 0.40 | 0.05 | 76 | 1008.8 |
| 20260505222508 | 51 | 295 | 0.0 | 2.0 | 0.00 | 0.40 | 0.05 | 77 | 1008.5 |
| 20260505222007 | 51 | 295 | 0.0 | 2.0 | 0.00 | 0.40 | 0.05 | 74 | 1008.4 |
| 20260505221516 | 51 | 313 | 1.0 | 2.0 | 0.00 | 0.40 | 0.05 | 74 | 1008.5 |
| 20260505221009 | 51 | 20 | 1.0 | 2.0 | 0.00 | 0.40 | 0.05 | 74 | 1008.7 |
| 20260505220507 | 51 | 285 | 1.0 | 3.0 | 0.00 | 0.40 | 0.05 | 73 | 1008.8 |
| 20260505220004 | 51 | 90 | 0.0 | 3.0 | 0.00 | 0.40 | 0.05 | 73 | 1008.9 |
| 20260505215505 | 51 | 336 | 0.0 | 3.0 | 0.00 | 0.40 | 0.05 | 74 | 1008.9 |
| 20260505215003 | 51 | 281 | 0.0 | 2.0 | 0.00 | 0.40 | 0.05 | 72 | 1009.1 |
| 20260505214508 | 51 | 271 | 0.0 | 2.0 | 0.00 | 0.40 | 0.05 | 72 | 1009.2 |
| 20260505214003 | 51 | 330 | 1.0 | 3.0 | 0.00 | 0.40 | 0.05 | 73 | 1009.2 |
| 20260505213502 | 51 | 322 | 0.0 | 3.0 | 0.00 | 0.40 | 0.05 | 75 | 1009.3 |
| 20260505213020 | 51 | 337 | 0.0 | 1.0 | 0.00 | 0.40 | 0.05 | 73 | 1009.4 |
| 20260505212506 | 51 | 31 | 0.0 | 2.0 | 0.00 | 0.40 | 0.05 | 75 | 1009.5 |
| 20260505212004 | 50 | 344 | 0.0 | 2.0 | 0.00 | 0.40 | 0.05 | 73 | 1009.5 |
| 20260505211512 | 50 | 27 | 0.0 | 2.0 | 0.01 | 0.40 | 0.05 | 75 | 1009.5 |
| 20260505211006 | 50 | 287 | 0.0 | 2.0 | 0.01 | 0.40 | 0.05 | 76 | 1009.5 |
| 20260505210507 | 50 | 310 | 0.0 | 2.0 | 0.01 | 0.40 | 0.05 | 76 | 1009.8 |
| 20260505210018 | 50 | 300 | 1.0 | 2.0 | 0.01 | 0.40 | 0.05 | 75 | 1010.0 |
| 20260505205508 | 50 | 291 | 0.0 | 3.0 | 0.01 | 0.40 | 0.05 | 76 | 1009.9 |
| 20260505205008 | 50 | 65 | 0.0 | 3.0 | 0.01 | 0.40 | 0.05 | 73 | 1010.0 |
| 20260505204504 | 50 | 56 | 0.0 | 4.0 | 0.02 | 0.40 | 0.05 | 74 | 1010.0 |
| 20260505204005 | 50 | 270 | 0.0 | 4.0 | 0.02 | 0.40 | 0.05 | 74 | 1010.1 |
| 20260505203503 | 50 | 262 | 0.0 | 3.0 | 0.03 | 0.40 | 0.05 | 75 | 1010.1 |
| 20260505203005 | 50 | 55 | 1.0 | 3.0 | 0.03 | 0.40 | 0.05 | 75 | 1010.2 |
| 20260505202503 | 50 | 288 | 0.0 | 2.0 | 0.04 | 0.40 | 0.05 | 74 | 1010.2 |
| 20260505202006 | 50 | 340 | 1.0 | 2.0 | 0.04 | 0.40 | 0.05 | 75 | 1010.4 |
| 20260505201514 | 50 | 347 | 1.0 | 4.0 | 0.03 | 0.39 | 0.04 | 74 | 1010.4 |
| 20260505201004 | 50 | 34 | 0.0 | 4.0 | 0.03 | 0.39 | 0.04 | 76 | 1010.4 |
| 20260505200508 | 49 | 316 | 1.0 | 3.0 | 0.03 | 0.39 | 0.04 | 73 | 1010.3 |
| 20260505200018 | 49 | 333 | 0.0 | 3.0 | 0.03 | 0.39 | 0.04 | 76 | 1010.4 |
| 20260505195505 | 49 | 12 | 1.0 | 3.0 | 0.03 | 0.39 | 0.04 | 75 | 1010.3 |
| 20260505195007 | 50 | 316 | 1.0 | 4.0 | 0.03 | 0.39 | 0.04 | 76 | 1010.4 |
| 20260505194520 | 50 | 326 | 1.0 | 4.0 | 0.02 | 0.38 | 0.03 | 77 | 1010.4 |
| 20260505194008 | 50 | 347 | 1.0 | 5.0 | 0.02 | 0.38 | 0.03 | 78 | 1010.4 |
| 20260505193509 | 51 | 326 | 2.0 | 5.0 | 0.01 | 0.37 | 0.02 | 74 | 1010.4 |
| 20260505193004 | 51 | 347 | 2.0 | 4.0 | 0.01 | 0.37 | 0.02 | 73 | 1010.4 |
| 20260505192505 | 52 | 319 | 2.0 | 4.0 | 0.00 | 0.36 | 0.01 | 68 | 1010.6 |
| 20260505192005 | 52 | 289 | 1.0 | 5.0 | 0.00 | 0.36 | 0.01 | 67 | 1010.5 |
| 20260505191508 | 52 | 327 | 2.0 | 5.0 | 0.00 | 0.36 | 0.01 | 64 | 1010.4 |
| 20260505191005 | 53 | 38 | 2.0 | 5.0 | 0.00 | 0.36 | 0.01 | 62 | 1010.3 |
| 20260505190507 | 53 | 262 | 2.0 | 6.0 | 0.00 | 0.36 | 0.01 | 63 | 1010.2 |
| 20260505190022 | 53 | 360 | 2.0 | 6.0 | 0.00 | 0.36 | 0.01 | 66 | 1010.1 |
| 20260505185507 | 54 | 311 | 1.0 | 6.0 | 0.00 | 0.36 | 0.01 | 71 | 1010.0 |
| 20260505185005 | 54 | 153 | 1.0 | 5.0 | 0.00 | 0.36 | 0.01 | 70 | 1010.1 |
| 20260505184518 | 54 | 294 | 1.0 | 5.0 | 0.00 | 0.36 | 0.01 | 70 | 1010.0 |
| 20260505184007 | 54 | 11 | 1.0 | 4.0 | 0.00 | 0.36 | 0.01 | 74 | 1010.0 |
| 20260505183508 | 54 | 229 | 1.0 | 4.0 | 0.00 | 0.36 | 0.01 | 73 | 1010.0 |
| 20260505183020 | 54 | 259 | 1.0 | 4.0 | 0.00 | 0.36 | 0.01 | 74 | 1010.1 |
| 20260505182507 | 54 | 213 | 1.0 | 4.0 | 0.00 | 0.36 | 0.01 | 74 | 1010.1 |
| 20260505182009 | 54 | 345 | 1.0 | 4.0 | 0.00 | 0.36 | 0.01 | 73 | 1010.1 |
| 20260505181506 | 54 | 101 | 2.0 | 4.0 | 0.00 | 0.36 | 0.01 | 75 | 1009.9 |
| 20260505181004 | 54 | 278 | 1.0 | 4.0 | 0.00 | 0.36 | 0.01 | 74 | 1010.0 |
| 20260505180503 | 54 | 262 | 1.0 | 4.0 | 0.00 | 0.36 | 0.01 | 74 | 1010.0 |
| 20260505180011 | 54 | 289 | 1.0 | 6.0 | 0.00 | 0.36 | 0.01 | 75 | 1010.0 |
| 20260505175504 | 54 | 4 | 1.0 | 6.0 | 0.00 | 0.36 | 0.01 | 73 | 1010.0 |
| 20260505175006 | 55 | 340 | 2.0 | 4.0 | 0.00 | 0.36 | 0.01 | 73 | 1010.0 |
| 20260505174514 | 54 | 70 | 2.0 | 6.0 | 0.00 | 0.36 | 0.01 | 74 | 1010.0 |
| 20260505174007 | 54 | 226 | 1.0 | 6.0 | 0.00 | 0.36 | 0.01 | 79 | 1010.2 |
| 20260505173507 | 53 | 42 | 2.0 | 6.0 | 0.00 | 0.36 | 0.01 | 78 | 1010.3 |
| 20260505173023 | 52 | 288 | 1.0 | 4.0 | 0.00 | 0.36 | 0.01 | 75 | 1010.3 |
| 20260505172506 | 52 | 281 | 1.0 | 4.0 | 0.00 | 0.36 | 0.01 | 77 | 1010.1 |
| 20260505172007 | 51 | 58 | 2.0 | 4.0 | 0.00 | 0.36 | 0.01 | 78 | 1010.2 |
| 20260505171529 | 51 | 317 | 1.0 | 6.0 | 0.00 | 0.36 | 0.01 | 79 | 1010.0 |
| 20260505171009 | 51 | 63 | 3.0 | 6.0 | 0.00 | 0.36 | 0.01 | 77 | 1010.0 |
| 20260505170509 | 51 | 343 | 3.0 | 6.0 | 0.00 | 0.36 | 0.01 | 78 | 1009.8 |
| 20260505170009 | 51 | 336 | 2.0 | 6.0 | 0.00 | 0.36 | 0.01 | 78 | 1009.9 |
| 20260505165506 | 51 | 254 | 1.0 | 4.0 | 0.00 | 0.36 | 0.01 | 78 | 1010.1 |
| 20260505165004 | 51 | 44 | 1.0 | 3.0 | 0.00 | 0.36 | 0.01 | 77 | 1010.3 |
| 20260505164509 | 51 | 233 | 0.0 | 4.0 | 0.00 | 0.36 | 0.01 | 79 | 1010.2 |
| 20260505164004 | 51 | 328 | 0.0 | 5.0 | 0.00 | 0.36 | 0.01 | 79 | 1010.2 |
| 20260505163504 | 51 | 56 | 3.0 | 6.0 | 0.00 | 0.36 | 0.01 | 80 | 1010.0 |
| 20260505163012 | 51 | 330 | 3.0 | 6.0 | 0.00 | 0.36 | 0.01 | 80 | 1010.0 |
| 20260505162505 | 50 | 55 | 3.0 | 6.0 | 0.00 | 0.36 | 0.01 | 79 | 1010.0 |
| 20260505162008 | 51 | 63 | 2.0 | 5.0 | 0.00 | 0.36 | 0.01 | 81 | 1009.8 |
| 20260505161519 | 51 | 44 | 2.0 | 5.0 | 0.00 | 0.36 | 0.01 | 80 | 1009.7 |
| 20260505161007 | 51 | 68 | 2.0 | 4.0 | 0.00 | 0.36 | 0.01 | 82 | 1009.6 |
| 20260505160515 | 51 | 76 | 2.0 | 7.0 | 0.00 | 0.36 | 0.01 | 80 | 1009.5 |
| 20260505153014 | 50 | 145 | 3.0 | 6.0 | 0.00 | 0.36 | 0.01 | 79 | 1009.5 |
| 20260505152504 | 50 | 264 | 1.0 | 6.0 | 0.00 | 0.36 | 0.01 | 80 | 1009.6 |
| 20260505152007 | 50 | 39 | 4.0 | 8.0 | 0.00 | 0.36 | 0.01 | 78 | 1009.4 |
| 20260505151515 | 50 | 44 | 2.0 | 8.0 | 0.00 | 0.36 | 0.01 | 80 | 1009.3 |
| 20260505151004 | 49 | 45 | 3.0 | 11.0 | 0.00 | 0.36 | 0.01 | 81 | 1009.1 |
| 20260505150507 | 49 | 68 | 7.0 | 11.0 | 0.00 | 0.36 | 0.01 | 81 | 1008.8 |
| 20260505140505 | 47 | 61 | 2.0 | 6.0 | 0.00 | 0.36 | 0.01 | 80 | 1009.3 |
| 20260505125008 | 48 | 351 | 2.0 | 8.0 | 0.00 | 0.36 | 0.01 | 82 | 1009.4 |
| 20260505124521 | 48 | 259 | 3.0 | 6.0 | 0.00 | 0.36 | 0.01 | 82 | 1009.4 |
| 20260505124009 | 49 | 296 | 2.0 | 4.0 | 0.00 | 0.36 | 0.01 | 82 | 1009.6 |
| 20260505123507 | 49 | 302 | 2.0 | 4.0 | 0.00 | 0.36 | 0.01 | 83 | 1009.6 |
| 20260505123005 | 49 | 316 | 2.0 | 5.0 | 0.00 | 0.36 | 0.01 | 82 | 1009.5 |
| 20260505122504 | 49 | 315 | 2.0 | 5.0 | 0.00 | 0.36 | 0.01 | 82 | 1009.2 |
| 20260505122004 | 49 | 328 | 1.0 | 6.0 | 0.00 | 0.36 | 0.01 | 82 | 1008.9 |
| 20260505121510 | 49 | 325 | 2.0 | 6.0 | 0.01 | 0.36 | 0.01 | 81 | 1008.8 |
| 20260505121003 | 49 | 326 | 1.0 | 4.0 | 0.01 | 0.36 | 0.01 | 83 | 1008.7 |
| 20260505120504 | 49 | 324 | 0.0 | 4.0 | 0.01 | 0.36 | 0.01 | 83 | 1008.5 |
| 20260505120038 | 49 | 356 | 1.0 | 4.0 | 0.01 | 0.36 | 0.01 | 83 | 1008.3 |
| 20260505115505 | 49 | 334 | 2.0 | 5.0 | 0.01 | 0.36 | 0.01 | 83 | 1008.3 |
| 20260505115006 | 49 | 341 | 2.0 | 5.0 | 0.01 | 0.36 | 0.01 | 83 | 1008.0 |
| 20260505114519 | 49 | 278 | 2.0 | 4.0 | 0.01 | 0.36 | 0.01 | 83 | 1007.7 |
| 20260505114008 | 49 | 34 | 1.0 | 4.0 | 0.01 | 0.36 | 0.01 | 83 | 1007.6 |
| 20260505113506 | 49 | 12 | 1.0 | 4.0 | 0.01 | 0.36 | 0.01 | 83 | 1007.6 |
| 20260505113024 | 49 | 294 | 1.0 | 3.0 | 0.01 | 0.36 | 0.01 | 83 | 1007.6 |
| 20260505112507 | 49 | 326 | 1.0 | 3.0 | 0.01 | 0.36 | 0.01 | 83 | 1007.6 |
| 20260505112009 | 50 | 216 | 2.0 | 4.0 | 0.01 | 0.36 | 0.01 | 83 | 1007.4 |
| 20260505111526 | 50 | 317 | 2.0 | 4.0 | 0.00 | 0.35 | 0.00 | 81 | 1007.3 |
| 20260505111009 | 50 | 330 | 1.0 | 4.0 | 0.00 | 0.35 | 0.00 | 82 | 1007.2 |
| 20260505110507 | 50 | 337 | 1.0 | 4.0 | 0.00 | 0.35 | 0.00 | 82 | 1007.3 |
| 20260505102010 | 51 | 326 | 0.0 | 2.0 | 0.00 | 0.35 | 0.00 | 82 | 1007.0 |
| 20260505101527 | 51 | 324 | 0.0 | 2.0 | 0.00 | 0.35 | 0.00 | 84 | 1006.9 |
| 20260505101010 | 51 | 324 | 0.0 | 2.0 | 0.00 | 0.35 | 0.00 | 81 | 1006.4 |
| 20260505100508 | 51 | 83 | 0.0 | 3.0 | 0.00 | 0.35 | 0.00 | 81 | 1006.0 |
| 20260505100029 | 51 | 37 | 1.0 | 3.0 | 0.00 | 0.35 | 0.00 | 81 | 1006.0 |
| 20260505095504 | 51 | 11 | 0.0 | 5.0 | 0.00 | 0.35 | 0.00 | 82 | 1006.0 |
| 20260505095008 | 52 | 306 | 1.0 | 5.0 | 0.00 | 0.35 | 0.00 | 82 | 1006.1 |
| 20260505094516 | 52 | 335 | 1.0 | 3.0 | 0.00 | 0.35 | 0.00 | 83 | 1006.2 |
| 20260505094006 | 52 | 326 | 1.0 | 3.0 | 0.00 | 0.35 | 0.00 | 83 | 1006.4 |
| 20260505093506 | 52 | 338 | 0.0 | 3.0 | 0.00 | 0.35 | 0.00 | 84 | 1006.4 |
| 20260505093018 | 53 | 315 | 1.0 | 3.0 | 0.00 | 0.35 | 0.00 | 82 | 1006.5 |
| 20260505092507 | 53 | 328 | 0.0 | 2.0 | 0.00 | 0.35 | 0.00 | 80 | 1006.1 |
| 20260505092008 | 53 | 278 | 0.0 | 3.0 | 0.00 | 0.35 | 0.00 | 80 | 1006.4 |
| 20260505091527 | 53 | 333 | 1.0 | 3.0 | 0.00 | 0.35 | 0.00 | 80 | 1006.7 |
| 20260505091004 | 53 | 326 | 1.0 | 3.0 | 0.00 | 0.35 | 0.00 | 81 | 1006.6 |
| 20260505090507 | 53 | 311 | 1.0 | 1.0 | 0.00 | 0.35 | 0.00 | 81 | 1006.6 |
| 20260505090038 | 54 | 287 | 0.0 | 2.0 | 0.00 | 0.35 | 0.00 | 83 | 1006.8 |
| 20260505085515 | 54 | 286 | 0.0 | 2.0 | 0.00 | 0.35 | 0.00 | 81 | 1006.6 |
| 20260505085010 | 54 | 313 | 1.0 | 2.0 | 0.00 | 0.35 | 0.00 | 81 | 1006.6 |
| 20260505084525 | 54 | 306 | 1.0 | 2.0 | 0.00 | 0.35 | 0.00 | 81 | 1006.4 |
| 20260505084004 | 54 | 295 | 0.0 | 2.0 | 0.00 | 0.35 | 0.00 | 82 | 1006.4 |
| 20260505083505 | 54 | 315 | 0.0 | 3.0 | 0.00 | 0.35 | 0.00 | 84 | 1006.3 |
| 20260505083015 | 55 | 301 | 0.0 | 3.0 | 0.00 | 0.35 | 0.00 | 88 | 1006.1 |
| 20260505082504 | 55 | 294 | 1.0 | 3.0 | 0.00 | 0.35 | 0.00 | 88 | 1005.8 |
| 20260505082007 | 55 | 253 | 0.0 | 2.0 | 0.00 | 0.35 | 0.00 | 90 | 1005.7 |
| 20260505081521 | 55 | 253 | 1.0 | 2.0 | 0.00 | 0.35 | 0.00 | 90 | 1005.6 |
| 20260505081005 | 55 | 250 | 0.0 | 2.0 | 0.00 | 0.35 | 0.00 | 90 | 1005.4 |
| 20260505080508 | 55 | 173 | 0.0 | 0.0 | 0.00 | 0.35 | 0.00 | 90 | 1005.1 |
| 20260505080021 | 55 | 173 | 0.0 | 0.0 | 0.00 | 0.35 | 0.00 | 90 | 1004.9 |
| 20260505075506 | 55 | 173 | 0.0 | 0.0 | 0.00 | 0.35 | 0.00 | 91 | 1004.8 |
| 20260505075007 | 55 | 173 | 0.0 | 0.0 | 0.00 | 0.35 | 0.00 | 91 | 1004.7 |
| 20260505074524 | 55 | 173 | 0.0 | 3.0 | 0.00 | 0.35 | 0.00 | 92 | 1004.9 |
| 20260505074007 | 55 | 173 | 0.0 | 4.0 | 0.00 | 0.35 | 0.00 | 92 | 1004.9 |
| 20260505073508 | 55 | 216 | 2.0 | 4.0 | 0.00 | 0.35 | 0.00 | 92 | 1005.0 |
| 20260505073043 | 55 | 221 | 4.0 | 4.0 | 0.00 | 0.35 | 0.00 | 92 | 1005.0 |
| 20260505072505 | 55 | 240 | 2.0 | 4.0 | 0.00 | 0.35 | 0.00 | 91 | 1004.9 |
| 20260505072007 | 56 | 243 | 2.0 | 4.0 | 0.00 | 0.35 | 0.00 | 91 | 1005.0 |
| 20260505071519 | 56 | 264 | 2.0 | 4.0 | 0.00 | 0.35 | 0.00 | 91 | 1004.8 |
| 20260505071004 | 56 | 262 | 3.0 | 5.0 | 0.00 | 0.35 | 0.00 | 91 | 1004.5 |
| 20260505070509 | 56 | 255 | 3.0 | 5.0 | 0.00 | 0.35 | 0.00 | 91 | 1004.3 |
| 20260505070022 | 56 | 270 | 3.0 | 5.0 | 0.00 | 0.35 | 0.00 | 91 | 1004.3 |
| 20260505065508 | 56 | 266 | 3.0 | 4.0 | 0.00 | 0.35 | 0.00 | 90 | 1004.2 |
| 20260505065006 | 57 | 228 | 3.0 | 5.0 | 0.00 | 0.35 | 0.00 | 90 | 1004.0 |
| 20260505064536 | 57 | 217 | 3.0 | 6.0 | 0.00 | 0.35 | 0.00 | 89 | 1004.0 |
| 20260505064007 | 57 | 225 | 4.0 | 7.0 | 0.00 | 0.35 | 0.00 | 88 | 1003.9 |
| 20260505063509 | 57 | 249 | 5.0 | 7.0 | 0.00 | 0.35 | 0.00 | 89 | 1004.2 |
| 20260505063026 | 57 | 234 | 6.0 | 7.0 | 0.00 | 0.35 | 0.00 | 90 | 1004.2 |
| 20260505062509 | 57 | 255 | 4.0 | 5.0 | 0.00 | 0.35 | 0.00 | 89 | 1003.8 |
| 20260505062011 | 57 | 270 | 3.0 | 5.0 | 0.00 | 0.35 | 0.00 | 88 | 1003.6 |
| 20260505061540 | 57 | 266 | 4.0 | 6.0 | 0.00 | 0.35 | 0.00 | 88 | 1003.6 |
| 20260505061003 | 58 | 275 | 3.0 | 6.0 | 0.00 | 0.35 | 0.00 | 88 | 1003.6 |
| 20260505060508 | 58 | 272 | 4.0 | 5.0 | 0.00 | 0.35 | 0.00 | 88 | 1003.4 |
| 20260505060020 | 58 | 271 | 4.0 | 5.0 | 0.00 | 0.35 | 0.00 | 87 | 1003.2 |
| 20260505055506 | 58 | 295 | 0.0 | 5.0 | 0.00 | 0.35 | 0.00 | 88 | 1002.9 |
| 20260505055007 | 58 | 295 | 2.0 | 5.0 | 0.00 | 0.35 | 0.00 | 87 | 1002.9 |
| 20260505054532 | 59 | 352 | 1.0 | 5.0 | 0.00 | 0.35 | 0.00 | 87 | 1002.9 |
| 20260505054012 | 59 | 311 | 0.0 | 8.0 | 0.00 | 0.35 | 0.00 | 85 | 1003.1 |
| 20260505053511 | 60 | 299 | 5.0 | 8.0 | 0.00 | 0.35 | 0.00 | 83 | 1002.9 |
| 20260505053030 | 60 | 300 | 6.0 | 7.0 | 0.00 | 0.35 | 0.00 | 83 | 1002.9 |
| 20260505052509 | 59 | 290 | 5.0 | 7.0 | 0.00 | 0.35 | 0.00 | 84 | 1002.9 |
| 20260505052008 | 59 | 295 | 5.0 | 7.0 | 0.01 | 0.35 | 0.00 | 85 | 1002.8 |
| 20260505051526 | 58 | 288 | 2.0 | 5.0 | 0.01 | 0.35 | 0.00 | 88 | 1002.6 |
| 20260505051014 | 59 | 269 | 4.0 | 5.0 | 0.01 | 0.35 | 0.00 | 89 | 1002.6 |
| 20260505050507 | 58 | 269 | 4.0 | 5.0 | 0.01 | 0.35 | 0.00 | 89 | 1002.4 |
| 20260505041512 | 58 | 249 | 4.0 | 5.0 | 0.05 | 0.34 | 0.34 | 91 | 1002.1 |
| 20260505041004 | 58 | 240 | 0.0 | 4.0 | 0.08 | 0.34 | 0.34 | 92 | 1001.9 |
| 20260505040506 | 58 | 15 | 1.0 | 4.0 | 0.09 | 0.34 | 0.34 | 91 | 1001.9 |
| 20260505040015 | 58 | 259 | 2.0 | 4.0 | 0.10 | 0.34 | 0.34 | 89 | 1001.4 |
| 20260505035505 | 58 | 301 | 0.0 | 7.0 | 0.13 | 0.34 | 0.34 | 90 | 1001.8 |
| 20260505035003 | 58 | 340 | 2.0 | 7.0 | 0.19 | 0.34 | 0.34 | 89 | 1002.0 |
| 20260505034517 | 57 | 129 | 1.0 | 3.0 | 0.25 | 0.34 | 0.34 | 90 | 1001.9 |
| 20260505034009 | 57 | 301 | 0.0 | 10.0 | 0.33 | 0.33 | 0.33 | 91 | 1003.0 |
| 20260505033506 | 57 | 293 | 2.0 | 10.0 | 0.32 | 0.32 | 0.32 | 89 | 1003.3 |
| 20260505033022 | 57 | 295 | 2.0 | 5.0 | 0.31 | 0.31 | 0.31 | 90 | 1003.6 |
| 20260505032503 | 57 | 264 | 1.0 | 6.0 | 0.31 | 0.31 | 0.31 | 91 | 1003.4 |
| 20260505032003 | 57 | 270 | 3.0 | 6.0 | 0.30 | 0.30 | 0.30 | 91 | 1003.7 |
| 20260505031519 | 57 | 41 | 0.0 | 4.0 | 0.29 | 0.29 | 0.29 | 91 | 1003.4 |
| 20260505031003 | 57 | 309 | 0.0 | 3.0 | 0.26 | 0.26 | 0.26 | 90 | 1003.7 |
| 20260505030503 | 57 | 63 | 1.0 | 3.0 | 0.25 | 0.25 | 0.25 | 89 | 1003.4 |
| 20260505030012 | 57 | 17 | 1.0 | 3.0 | 0.24 | 0.24 | 0.24 | 87 | 1003.5 |
| 20260505025504 | 58 | 54 | 1.0 | 5.0 | 0.21 | 0.21 | 0.21 | 84 | 1003.6 |
| 20260505025004 | 60 | 319 | 1.0 | 7.0 | 0.15 | 0.15 | 0.15 | 79 | 1003.8 |
| 20260505024525 | 62 | 158 | 2.0 | 8.0 | 0.09 | 0.09 | 0.09 | 73 | 1003.6 |
| 20260505024003 | 64 | 281 | 2.0 | 14.0 | 0.00 | 0.00 | 0.00 | 66 | 1003.5 |
| 20260505023507 | 66 | 309 | 5.0 | 30.0 | 0.00 | 0.00 | 0.00 | 58 | 1003.4 |
| 20260505023019 | 68 | 9 | 11.0 | 30.0 | 0.00 | 0.00 | 0.00 | 60 | 1003.4 |
| 20260505022506 | 68 | 219 | 10.0 | 14.0 | 0.00 | 0.00 | 0.00 | 64 | 1001.5 |
| 20260505022007 | 68 | 225 | 11.0 | 14.0 | 0.00 | 0.00 | 0.00 | 63 | 1001.3 |
| 20260505021526 | 68 | 225 | 11.0 | 14.0 | 0.00 | 0.00 | 0.00 | 63 | 1001.2 |
| 20260505021006 | 68 | 224 | 11.0 | 17.0 | 0.00 | 0.00 | 0.00 | 62 | 1001.1 |
| 20260505020503 | 68 | 210 | 12.0 | 17.0 | 0.00 | 0.00 | 0.00 | 61 | 1001.0 |
| 20260505020006 | 69 | 218 | 14.0 | 17.0 | 0.00 | 0.00 | 0.00 | 61 | 1001.0 |
| 20260505015504 | 69 | 233 | 13.0 | 17.0 | 0.00 | 0.00 | 0.00 | 61 | 1001.0 |
| 20260505015004 | 69 | 217 | 13.0 | 17.0 | 0.00 | 0.00 | 0.00 | 60 | 1001.0 |
| 20260505014512 | 69 | 211 | 14.0 | 20.0 | 0.00 | 0.00 | 0.00 | 60 | 1000.9 |
| 20260505014003 | 69 | 216 | 16.0 | 20.0 | 0.00 | 0.00 | 0.00 | 59 | 1000.8 |
| 20260505013509 | 69 | 219 | 16.0 | 21.0 | 0.00 | 0.00 | 0.00 | 59 | 1000.8 |
| 20260505013015 | 70 | 225 | 14.0 | 22.0 | 0.00 | 0.00 | 0.00 | 58 | 1000.7 |
| 20260505012506 | 70 | 240 | 18.0 | 22.0 | 0.00 | 0.00 | 0.00 | 58 | 1000.7 |
| 20260505012007 | 70 | 221 | 15.0 | 21.0 | 0.00 | 0.00 | 0.00 | 59 | 1000.6 |
| 20260505011006 | 70 | 217 | 14.0 | 19.0 | 0.00 | 0.00 | 0.00 | 59 | 1000.6 |
| 20260505010508 | 70 | 214 | 14.0 | 19.0 | 0.00 | 0.00 | 0.00 | 59 | 1000.5 |
| 20260505010022 | 70 | 222 | 14.0 | 20.0 | 0.00 | 0.00 | 0.00 | 59 | 1000.4 |
| 20260505005503 | 70 | 214 | 15.0 | 22.0 | 0.00 | 0.00 | 0.00 | 58 | 1000.3 |
| 20260505005004 | 70 | 238 | 15.0 | 22.0 | 0.00 | 0.00 | 0.00 | 58 | 1000.1 |
| 20260505004517 | 71 | 223 | 17.0 | 24.0 | 0.00 | 0.00 | 0.00 | 57 | 999.9 |
| 20260505004003 | 71 | 217 | 18.0 | 24.0 | 0.00 | 0.00 | 0.00 | 57 | 999.9 |
| 20260505003503 | 71 | 222 | 17.0 | 24.0 | 0.00 | 0.00 | 0.00 | 58 | 999.9 |
| 20260505003012 | 71 | 229 | 16.0 | 20.0 | 0.00 | 0.00 | 0.00 | 58 | 1000.0 |
| 20260505002509 | 71 | 226 | 15.0 | 20.0 | 0.00 | 0.00 | 0.00 | 58 | 1000.2 |
| 20260505002012 | 72 | 221 | 15.0 | 24.0 | 0.00 | 0.00 | 0.00 | 57 | 1000.2 |
| 20260505001514 | 72 | 236 | 17.0 | 24.0 | 0.00 | 0.00 | 0.00 | 56 | 1000.2 |
| 20260505001010 | 72 | 224 | 17.0 | 29.0 | 0.00 | 0.00 | 0.00 | 55 | 1000.1 |
| 20260505000508 | 73 | 225 | 21.0 | 30.0 | 0.00 | 0.00 | 0.00 | 54 | 1000.0 |
| 20260505000035 | 73 | 233 | 24.0 | 33.0 | 0.00 | 0.00 | 0.00 | 53 | 999.9 |
| 20260504235507 | 74 | 229 | 22.0 | 33.0 | 0.00 | 0.00 | 0.00 | 52 | 999.7 |
| 20260504235009 | 75 | 248 | 19.0 | 30.0 | 0.00 | 0.00 | 0.00 | 52 | 999.7 |
| 20260504234524 | 75 | 229 | 22.0 | 31.0 | 0.00 | 0.00 | 0.00 | 52 | 999.6 |
| 20260504234003 | 75 | 238 | 22.0 | 31.0 | 0.00 | 0.00 | 0.00 | 52 | 999.7 |
| 20260504233504 | 75 | 226 | 25.0 | 32.0 | 0.00 | 0.00 | 0.00 | 51 | 999.7 |
| 20260504233008 | 75 | 224 | 25.0 | 33.0 | 0.00 | 0.00 | 0.00 | 51 | 999.7 |
| 20260504232505 | 75 | 233 | 24.0 | 33.0 | 0.00 | 0.00 | 0.00 | 50 | 999.7 |
| 20260504232004 | 75 | 238 | 25.0 | 32.0 | 0.00 | 0.00 | 0.00 | 50 | 999.8 |
| 20260504231510 | 76 | 224 | 25.0 | 32.0 | 0.00 | 0.00 | 0.00 | 49 | 999.9 |
| 20260504231004 | 76 | 235 | 24.0 | 34.0 | 0.00 | 0.00 | 0.00 | 50 | 1000.0 |
| 20260504230507 | 76 | 242 | 27.0 | 35.0 | 0.00 | 0.00 | 0.00 | 49 | 1000.1 |
| 20260504230016 | 76 | 227 | 25.0 | 35.0 | 0.00 | 0.00 | 0.00 | 49 | 1000.2 |